Location: Betra
(48.4113°N, 8.6634°E)
Time: 17:52:19
(UTC+00:00)

YAOGAN 6 - Pass Details

Date: 23 May 2024
Orbit: 410 x 434 km, 97.2° (Epoch: 16 June)

Event Time Altitude Azimuth Distance (km) Brightness Sun altitude
Rises 02:38:18 0° 22° (NNE) 2,437 7.5 -8.2°
Reaches altitude 10° 02:40:30 10° 33° (NNE) 1,558 6.7 -8.0°
Maximum altitude 02:43:28 29° 96° (E) 825 4.2 -7.6°
Drops below altitude 10° 02:46:24 10° 159° (SSE) 1,533 4.9 -7.3°
Sets 02:48:33 0° 171° (S) 2,389 5.8 -7.0°
